Regional Weather Roundup
Issued by NWS Sterling, VA

Home | Current Version | Previous Version | Graphics & Text | Print | Product List | Glossary On
Versions: 1 2 3 4 5 6 7 8 9 10 11 12 13 14 15 16 17 18 19 20 21 22 23 24 25 26 27 28 29 30 31 32 33 34 35 36 37 38 39 40 41 42 43 44 45 46 47 48 49 50
879
ASUS41 KLWX 302110
RWRLWX

REGIONAL WEATHER ROUNDUP
NATIONAL WEATHER SERVICE BALTIMORE MD/WASHINGTON DC
500 PM EDT MON MAY 30 2016

Note: "FAIR" indicates few or no clouds below 12,000 feet
with no significant weather and/or obstructions to visibility.
 TC=TEMPERATURE CELSIUS

 * =Non NWS site. Station does not report precipitation (e.g. rain,
    snow, etc.), thunder, or fog.

DCZ001-MDZ009-015-VAZ040>042-051-053>054-302200-
WASHINGTON METRO

CITY           SKY/WX    TMP DP  RH WIND       PRES   REMARKS
WASHINGTON NAT CLOUDY    78  71  79 S10       29.95F
DULLES         PTSUNNY   80  67  64 SE8       29.94F
ANDREWS AFB    LGT RAIN  73  70  88 SE6       29.96S
FT BELVOIR     FAIR      77  70  79 SE7       29.95S
QUANTICO       LGT RAIN  76  71  85 S5        29.96F
COLLEGE PARK*  PTSUNNY   73  70  88 SE7       29.96R
LEESBURG*      FAIR      84  70  61 S7        29.95F
MANASSAS*      SUNNY     81  72  74 S8        29.95S

$$

MDZ006>007-011-014-302200-
BALTIMORE METRO

CITY           SKY/WX    TMP DP  RH WIND       PRES   REMARKS
BWI AIRPORT    CLOUDY    75  67  76 S5        29.95S
MD SCIENCE CTR   N/A     78  66  66 MISG      29.94F
MARTIN STATE   PTSUNNY   75  72  88 S9        29.97S
ANNAPOLIS      CLOUDY    72  69  90 S12       29.96S
FORT MEADE*    CLOUDY    73  66  78 S3        29.98S

$$

MDZ012-015-019>023-302200-
MARYLAND EASTERN SHORE

CITY           SKY/WX    TMP DP  RH WIND       PRES   REMARKS
OCEAN CITY     LGT RAIN  68  67  96 SE5       29.98F FOG
SALISBURY      RAIN      71  69  93 S7        29.98S FOG
BAY BRIDGE AP* CLOUDY    73  70  88 S6        29.96S
CAMBRIDGE*     CLOUDY    70  70 100 S5        29.97S

$$

MDZ017>025-302200-
SOUTHERN MARYLAND

CITY           SKY/WX    TMP DP  RH WIND       PRES   REMARKS
PATUXENT RIVER CLOUDY    71  68  90 S6        29.97F
ST INIGOES     LGT RAIN  71  69  93 SE9       29.97F
LEONARDTOWN*   CLOUDY    70  68  94 SE3       29.99S

$$

MDZ003>005-302200-
NORTH CENTRAL MARYLAND

CITY           SKY/WX    TMP DP  RH WIND       PRES   REMARKS
FREDERICK*     MOSUNNY   84  68  58 SW5       29.96F
HAGERSTOWN APT MOSUNNY   83  59  44 SW6       29.94F
WESTMINSTER*   MOSUNNY   88  82  84 S8        29.95F HX 108

$$

MDZ501>502-302200-
WESTERN MARYLAND

CITY           SKY/WX    TMP DP  RH WIND       PRES   REMARKS
OAKLAND*       CLOUDY    70  61  73 NW7       30.07S
CUMBERLAND*    CLOUDY    82  63  51 SE3       29.96F

$$

VAZ025>031-302200-
SHENANDOAH VALLEY

CITY           SKY/WX    TMP DP  RH WIND       PRES   REMARKS
WINCHESTER*    FAIR      84  59  42 SE3       29.95S
FRONT ROYAL*   FAIR      82  64  54 CALM      29.93F
LURAY*         FAIR      84  63  48 N3        29.95F
NEW MARKET*    FAIR      82  62  52 N5        29.93F
STAUNTON*      FAIR      79  59  50 CALM      29.98F
WAYNESBORO*    MOCLDY    78  61  55 E8        29.98F

$$

WVZ021-048>050-054>055-302200-
EASTERN WEST VIRGINIA PANHANDLE

CITY           SKY/WX    TMP DP  RH WIND       PRES   REMARKS
MARTINSBURG    FAIR      83  61  47 CALM      29.93F
PETERSBURG*    PTSUNNY   83  63  50 CALM      29.96R

$$

VAZ036>039-050-302200-
CENTRAL FOOTHILLS

CITY           SKY/WX    TMP DP  RH WIND       PRES   REMARKS
CHARLOTTESVILL FAIR      82  65  56 CALM      29.95F
CULPEPER*      FAIR      81  70  70 SE5       29.95F
ORANGE*        FAIR      81  68  65 NE6       29.98S
GORDONSVILLE*  FAIR      80  70  72 S6        29.95S
WARRENTON*     FAIR      81  65  58 SE6       29.94F

$$

VAZ055>057-302200-
NORTH AND CENTRAL PIEDMONT

CITY           SKY/WX    TMP DP  RH WIND       PRES   REMARKS
FREDERICKSBRG* FAIR      78  71  78 SE7       29.94F
STAFFORD*      FAIR      76  69  79 SE3       30.00S

$$

NCZ024-NYZ072-PAZ021-071-VAZ022-071-302200-
OTHER REGIONAL OBSERVATIONS

CITY           SKY/WX    TMP DP  RH WIND       PRES   REMARKS
NEW YORK CITY  CLOUDY    77  67  71 S6        29.95F
PHILADELPHIA   CLOUDY    77  67  71 S10       29.95S
PITTSBURGH     MOSUNNY   83  55  38 NW13G22   29.98F
ROANOKE        FAIR      83  58  42 E6        29.98F
RICHMOND       LGT RAIN  71  70  96 SE7       29.97S FOG
RALEIGH        PTSUNNY   73  70  90 NE8       29.93S THUNDER

$$

ANZ530>537-302200-
MARINE OBSERVATIONS

STATION/POSITION TIME  TEMP    WIND        PRES
                       AIR SEA DIR/SP/G
                 (UTC) (F)     (DEG/KT/KT) (MB)
THOMAS PT LIGHT  2100   70 69  190/ 13/ 14 1015.8F
BALT KEY BRIDGE  2000   74     120/  7/  8 1014.2F
COVE POINT       2000   68     200/ 12/ 14 1015.7F
LEWISETTA        2000   72 70  170/  8/ 10 1014.8F
SOLOMONS ISLAND  2000   71 67  160/  8/  9   N/A
PINEY POINT      2000          160/ 12/ 12   N/A

$$





USA.gov is the U.S. government's official web portal to all federal, state and local government web resources and services.